This demonstration page uses our WeatherBlox Daily Observations layout. Learn more.

Left ArrowRight Arrow

38.89511, -77.03637

Hourly Observations for May 31, 2017

Temp ( °F °C ) Dew Point ( °F °C ) Humidity (%) Winds ( mph kmh ) Pressure ( in mb ) Visibility ( mi km ) Precip ( " mm )
12:11 am 00:11 Cloudy 67 19.4 66 18.9 97 97 E 6 9 30.03 1017 10 16 0.01 0.25
12:52 am 00:52 Cloudy 67 19.4 66 18.9 97 97 Calm 30.03 1017 10 16 0.01 0.25
1:22 am 01:22 Cloudy 67 19.4 66 18.9 97 97 Calm 30.03 1017 10 16 0.00 0.00
1:52 am 01:52 Cloudy 67 19.4 66 18.9 97 97 Calm 30.03 1017 10 16 0.00 0.00
2:28 am 02:28 Cloudy 67 19.4 66 18.9 97 97 Calm 30.03 1017 10 16 0.00 0.00
2:43 am 02:43 Cloudy 67 19.4 66 18.9 97 97 ENE 5 7 30.03 1017 10 16 0.00 0.00
2:52 am 02:52 Cloudy 67 19.4 66 18.9 97 97 ENE 6 9 30.02 1017 10 16 0.00 0.00
3:29 am 03:29 Mostly Cloudy with Mist and Fog 66 18.9 66 18.9 100 100 ENE 6 9 30.03 1017 6 10 0.00 0.00
3:42 am 03:42 Mostly Cloudy with Mist and Fog 66 18.9 66 18.9 100 100 ENE 6 9 30.00 1016 6 10 0.00 0.00
3:52 am 03:52 Mostly Cloudy with Mist and Fog 66 18.9 66 18.9 100 100 NE 5 7 30.01 1016 5 8 0.00 0.00
3:56 am 03:56 Cloudy with Mist and Fog 66 18.9 65 18.3 96 96 NE 6 9 30.00 1016 5 8 0.00 0.00
4:52 am 04:52 Cloudy with Mist and Fog 66 18.9 65 18.3 96 96 NE 3 6 30.00 1016 6 10 0.00 0.00
4:55 am 04:55 Cloudy with Mist and Fog 66 18.9 65 18.3 96 96 NE 5 7 30.00 1016 6 10 0.00 0.00
5:13 am 05:13 Cloudy with Mist and Fog 66 18.9 66 18.9 100 100 N 5 7 30.00 1016 6 10 0.00 0.00
5:34 am 05:34 Cloudy with Mist and Fog 66 18.9 65 18.3 96 96 Calm 30.03 1017 6 10 0.00 0.00
5:52 am 05:52 Cloudy with Mist and Fog 66 18.9 65 18.3 96 96 Calm 30.01 1016 6 10 0.00 0.00
6:44 am 06:44 Cloudy with Mist and Fog 66 18.9 65 18.3 96 96 NNW 13 20 30.03 1017 5 8 0.00 0.00
6:52 am 06:52 Cloudy with Mist and Fog 66 19 64 18 94 94 NNW 10 17 30.06 1018 4 6 0.00 0.00
7:26 am 07:26 Cloudy with Mist and Fog 67 19.4 65 18.3 93 93 N 8 13 30.03 1017 6 10 0.00 0.00
7:52 am 07:52 Mostly Cloudy 70 21 64 18 83 83 Calm 30.03 1017 7 11 0.00 0.00
9:52 am 09:52 Mostly Cloudy 71 21.7 67 19.4 87 87 ESE 5 7 30.04 1017 10 16 0.00 0.00
10:52 am 10:52 Mostly Cloudy 72 22 66 19 83 83 SE 6 9 30.03 1017 10 16 0.00 0.00
11:52 am 11:52 Partly Cloudy 74 23.3 67 19.4 79 79 SSE 7 11 30.02 1017 10 16 0.00 0.00
12:52 pm 12:52 Partly Cloudy 77 25 68 20 74 74 SSE 7 11 30.02 1017 10 16 0.00 0.00
1:52 pm 13:52 Partly Cloudy 79 26.1 66 18.9 65 65 S 8 13 30.01 1016 10 16 0.00 0.00
2:52 pm 14:52 Partly Cloudy 80 26.7 65 18.3 60 60 S 10 17 30.00 1016 10 16 0.00 0.00
3:52 pm 15:52 Mostly Cloudy 77 25 65 18.3 66 66 S 13 20 29.97 1015 10 16 0.00 0.00
4:52 pm 16:52 Mostly Cloudy 78 25.6 64 17.8 62 62 S 9 15 29.95 1014 10 16 0.00 0.00
5:46 pm 17:46 Mostly Cloudy with Thunderstorms 77 25 63 17 61 61 SW 15 24 29.97 1015 10 16 0.00 0.03
5:52 pm 17:52 Mostly Cloudy with Thunderstorms 76 24.4 63 17.2 64 64 WSW 13 20 29.98 1015 10 16 0.00 0.03
6:18 pm 18:18 Mostly Cloudy with Light Rain 73 22.8 63 17.2 71 71 SSW 14 22 29.97 1015 10 16 0.02 0.51
6:52 pm 18:52 Mostly Cloudy 72 22.2 63 17.2 73 73 SW 10 17 29.97 1015 10 16 0.02 0.51
7:52 pm 19:52 Mostly Cloudy 69 20.6 64 17.8 84 84 S 5 7 29.97 1015 10 16 0.00 0.00
8:52 pm 20:52 Partly Cloudy 67 19.4 65 18.3 93 93 S 3 6 29.98 1015 10 16 0.00 0.00
9:52 pm 21:52 Partly Cloudy 67 19.4 63 17.2 87 87 SW 6 9 29.98 1015 10 16 0.00 0.00
10:52 pm 22:52 Partly Cloudy 66 18.9 63 17.2 90 90 SSW 6 9 29.99 1016 10 16 0.00 0.00
11:52 pm 23:52 Mostly Clear 67 19.4 62 16.7 84 84 S 3 6 30.00 1016 10 16 0.00 0.00

Powered by AerisWeather